Cumberland, WI

4:05 PM CDT on August 26, 2016 (GMT -0500)
Cumberland Municipal

Weather History for KUBE - November, 2013

Change the Weather History Date:

Tuesday, November 12, 2013

  Actual Average (KRPD) Record (KRPD)
Temperature  
Mean Temperature 19 °F -  
Max Temperature 28 °F 40 °F 60 °F (2011)
Min Temperature 10 °F 26 °F 10 °F (1996)
Degree Days  
Heating Degree Days 46    
Moisture  
Dew Point 8 °F    
Average Humidity 66    
Maximum Humidity 85    
Minimum Humidity 37    
Precipitation  
Precipitation 0.00 in - - ()
Sea Level Pressure  
Sea Level Pressure 30.60 in    
Wind  
Wind Speed 8 mph (West)    
Max Wind Speed 14 mph    
Max Gust Speed 16 mph    
Visibility 10 miles    
Events      
Averages and records for this station are not official NWS values.
T = Trace of Precipitation, MM = Missing Value Source: NWS Daily Summary

Daily Weather History Graph

Daily Weather History Graph

Search for Another Location

Airport or City:

Trip Planner

Search our weather history database for the weather conditions in past years. The results will help you decide how hot, cold, wet, or windy it might be!

Date:

Astronomy

Nov. 12, 2013 Rise Set
Actual Time 7:03 AM CST 4:40 PM CST
Civil Twilight 6:31 AM CST 5:12 PM CST
Nautical Twilight 5:55 AM CST 5:48 PM CST
Astronomical Twilight 5:20 AM CST 6:22 PM CST
Moon 2:07 PM CST (11/12) 1:39 AM CST (11/12)
Length of Visible Light 10h 41m
Length of Day
9h 37m
Waxing Gibbous, 76% of the Moon is Illuminated
Nov 12
Waxing Gibbous
Nov 17
Full
Nov 25
Last Quarter
Dec 2
New
Dec 9
First Quarter

Hourly Weather History & Observations

Time (CST) Temp. Windchill Dew Point Humidity Pressure Visibility Wind Dir Wind Speed Gust Speed Precip Events Conditions
12:15 AM 14.0 °F 0.5 °F 6.8 °F 73% 30.64 in 10.0 mi NNW 11.5 mph - N/A   Clear
12:35 AM 14.0 °F 2.0 °F 6.8 °F 73% 30.65 in 10.0 mi NNW 9.2 mph - N/A   Clear
12:55 AM 14.0 °F 1.2 °F 6.8 °F 73% 30.65 in 10.0 mi NNW 10.4 mph - N/A   Clear
1:15 AM 12.2 °F -0.2 °F 6.8 °F 79% 30.65 in 10.0 mi NNW 9.2 mph - N/A   Clear
1:35 AM 12.2 °F -0.2 °F 6.8 °F 79% 30.66 in 10.0 mi NNW 9.2 mph - N/A   Clear
1:55 AM 12.2 °F 0.7 °F 6.8 °F 79% 30.66 in 10.0 mi NNW 8.1 mph - N/A   Clear
2:15 AM 12.2 °F 1.7 °F 6.8 °F 79% 30.66 in 10.0 mi NNW 6.9 mph - N/A   Clear
2:35 AM 12.2 °F -2.5 °F 6.8 °F 79% 30.67 in 10.0 mi NNW 12.7 mph - N/A   Clear
2:55 AM 12.2 °F -0.2 °F 6.8 °F 79% 30.67 in 10.0 mi NW 9.2 mph - N/A   Clear
3:15 AM 12.2 °F -0.2 °F 6.8 °F 79% 30.67 in 10.0 mi NW 9.2 mph - N/A   Clear
3:35 AM 12.2 °F -0.2 °F 6.8 °F 79% 30.68 in 10.0 mi NW 9.2 mph - N/A   Clear
3:55 AM 12.2 °F 0.7 °F 6.8 °F 79% 30.68 in 10.0 mi NW 8.1 mph - N/A   Clear
4:15 AM 12.2 °F -0.2 °F 6.8 °F 79% 30.69 in 10.0 mi NW 9.2 mph - N/A   Clear
4:35 AM 12.2 °F -0.2 °F 6.8 °F 79% 30.69 in 10.0 mi NW 9.2 mph - N/A   Clear
4:55 AM 12.2 °F 1.7 °F 6.8 °F 79% 30.68 in 10.0 mi NNW 6.9 mph - N/A   Clear
5:15 AM 12.2 °F 0.7 °F 6.8 °F 79% 30.69 in 10.0 mi NNW 8.1 mph - N/A   Clear
5:35 AM 10.4 °F 4.0 °F 6.8 °F 85% 30.68 in 10.0 mi NW 3.5 mph - N/A   Clear
5:55 AM 10.4 °F 4.0 °F 6.8 °F 85% 30.68 in 10.0 mi West 3.5 mph - N/A   Clear
6:15 AM 10.4 °F 0.8 °F 6.8 °F 85% 30.69 in 10.0 mi WNW 5.8 mph - N/A   Clear
6:35 AM 10.4 °F 0.8 °F 6.8 °F 85% 30.69 in 10.0 mi WNW 5.8 mph - N/A   Clear
6:55 AM 12.2 °F 4.3 °F 6.8 °F 79% 30.68 in 10.0 mi West 4.6 mph - N/A   Mostly Cloudy
7:15 AM 12.2 °F 4.3 °F 6.8 °F 79% 30.69 in 10.0 mi WNW 4.6 mph - N/A   Mostly Cloudy
7:35 AM 12.2 °F 2.9 °F 6.8 °F 79% 30.67 in 10.0 mi West 5.8 mph - N/A   Scattered Clouds
7:55 AM 12.2 °F 2.9 °F 8.6 °F 85% 30.68 in 10.0 mi WSW 5.8 mph - N/A   Clear
8:15 AM 14.0 °F 2.9 °F 8.6 °F 79% 30.69 in 10.0 mi West 8.1 mph - N/A   Clear
8:35 AM 14.0 °F 6.5 °F 8.6 °F 79% 30.70 in 10.0 mi WNW 4.6 mph - N/A   Clear
8:55 AM 15.8 °F 4.2 °F 8.6 °F 73% 30.69 in 10.0 mi West 9.2 mph - N/A   Clear
9:15 AM 15.8 °F 4.2 °F 10.4 °F 79% 30.69 in 10.0 mi West 9.2 mph - N/A   Scattered Clouds
9:35 AM 17.6 °F 7.3 °F 10.4 °F 73% 30.69 in 10.0 mi West 8.1 mph - N/A   Scattered Clouds
9:55 AM 17.6 °F 8.2 °F 10.4 °F 73% 30.69 in 10.0 mi WSW 6.9 mph - N/A   Clear
10:15 AM 19.4 °F 11.5 °F 10.4 °F 68% 30.69 in 10.0 mi West 5.8 mph - N/A   Scattered Clouds
10:35 AM 19.4 °F 9.5 °F 10.4 °F 68% 30.68 in 10.0 mi WSW 8.1 mph - N/A   Clear
10:55 AM 21.2 °F 10.9 °F 10.4 °F 63% 30.68 in 10.0 mi West 9.2 mph 16.1 mph N/A   Clear
11:15 AM 21.2 °F 13.6 °F 10.4 °F 63% 30.67 in 10.0 mi West 5.8 mph - N/A   Clear
11:35 AM 23.0 °F 13.1 °F 10.4 °F 59% 30.67 in 10.0 mi West 9.2 mph - N/A   Clear
11:55 AM 23.0 °F 15.8 °F 10.4 °F 59% 30.66 in 10.0 mi WSW 5.8 mph - N/A   Clear
12:15 PM 24.8 °F 16.1 °F 8.6 °F 50% 30.65 in 10.0 mi WSW 8.1 mph - N/A   Clear
12:35 PM 26.6 °F 17.5 °F 6.8 °F 43% 30.63 in 10.0 mi WSW 9.2 mph - N/A   Clear
12:55 PM 26.6 °F 16.8 °F 6.8 °F 43% 30.62 in 10.0 mi WSW 10.4 mph - N/A   Clear
1:15 PM 26.6 °F 18.2 °F 5.0 °F 40% 30.62 in 10.0 mi WSW 8.1 mph 16.1 mph N/A   Clear
1:35 PM 26.6 °F 18.2 °F 3.2 °F 37% 30.61 in 10.0 mi WSW 8.1 mph - N/A   Clear
1:55 PM 28.4 °F 21.2 °F 5.0 °F 37% 30.59 in 10.0 mi WSW 6.9 mph - N/A   Clear
2:15 PM 28.4 °F 19.1 °F 5.0 °F 37% 30.59 in 10.0 mi WSW 10.4 mph - N/A   Clear
2:35 PM 28.4 °F 21.2 °F 5.0 °F 37% 30.58 in 10.0 mi WSW 6.9 mph - N/A   Clear
2:55 PM 26.6 °F 17.5 °F 3.2 °F 37% 30.58 in 10.0 mi WSW 9.2 mph - N/A   Clear
3:15 PM 26.6 °F 16.8 °F 3.2 °F 37% 30.57 in 10.0 mi WSW 10.4 mph - N/A   Clear
3:35 PM 26.6 °F 15.2 °F 5.0 °F 40% 30.57 in 10.0 mi WSW 13.8 mph - N/A   Clear
3:55 PM 26.6 °F 16.8 °F 5.0 °F 40% 30.56 in 10.0 mi WSW 10.4 mph - N/A   Clear
4:15 PM 24.8 °F 15.3 °F 6.8 °F 46% 30.56 in 10.0 mi WSW 9.2 mph - N/A   Clear
4:35 PM 24.8 °F 16.1 °F 6.8 °F 46% 30.56 in 10.0 mi WSW 8.1 mph - N/A   Clear
4:55 PM 23.0 °F 14.7 °F 6.8 °F 50% 30.56 in 10.0 mi WSW 6.9 mph - N/A   Clear
5:15 PM 23.0 °F 15.8 °F 6.8 °F 50% 30.55 in 10.0 mi West 5.8 mph - N/A   Clear
5:35 PM 21.2 °F 13.6 °F 8.6 °F 58% 30.54 in 10.0 mi SW 5.8 mph - N/A   Clear
5:55 PM 21.2 °F 14.9 °F 8.6 °F 58% 30.53 in 10.0 mi SW 4.6 mph - N/A   Clear
6:15 PM 21.2 °F 13.6 °F 8.6 °F 58% 30.53 in 10.0 mi WSW 5.8 mph - N/A   Clear
6:35 PM 21.2 °F 14.9 °F 10.4 °F 63% 30.52 in 10.0 mi WSW 4.6 mph - N/A   Clear
6:55 PM 21.2 °F 13.6 °F 8.6 °F 58% 30.51 in 10.0 mi SW 5.8 mph - N/A   Clear
7:15 PM 21.2 °F 12.6 °F 8.6 °F 58% 30.50 in 10.0 mi SW 6.9 mph - N/A   Clear
7:35 PM 21.2 °F 12.6 °F 8.6 °F 58% 30.49 in 10.0 mi SW 6.9 mph - N/A   Clear
7:55 PM 21.2 °F 11.7 °F 8.6 °F 58% 30.48 in 10.0 mi SW 8.1 mph - N/A   Clear
8:15 PM 21.2 °F 13.6 °F 10.4 °F 63% 30.48 in 10.0 mi SW 5.8 mph - N/A   Clear
8:35 PM 19.4 °F 12.8 °F 10.4 °F 68% 30.49 in 10.0 mi SW 4.6 mph - N/A   Clear
8:55 PM 21.2 °F 13.6 °F 10.4 °F 63% 30.48 in 10.0 mi SW 5.8 mph - N/A   Clear
9:15 PM 19.4 °F 11.5 °F 10.4 °F 68% 30.48 in 10.0 mi SSW 5.8 mph - N/A   Clear
9:35 PM 19.4 °F 10.4 °F 10.4 °F 68% 30.47 in 10.0 mi SSW 6.9 mph - N/A   Clear
9:55 PM 19.4 °F 10.4 °F 10.4 °F 68% 30.47 in 10.0 mi SSW 6.9 mph - N/A   Clear
10:15 PM 19.4 °F 9.5 °F 12.2 °F 74% 30.45 in 10.0 mi SW 8.1 mph - N/A   Clear
10:35 PM 19.4 °F 9.5 °F 12.2 °F 74% 30.44 in 10.0 mi SW 8.1 mph - N/A   Clear
10:55 PM 19.4 °F 10.4 °F 12.2 °F 74% 30.43 in 10.0 mi SW 6.9 mph - N/A   Clear
11:15 PM 19.4 °F 11.5 °F 12.2 °F 74% 30.42 in 10.0 mi SSW 5.8 mph - N/A   Clear
11:35 PM 17.6 °F 10.7 °F 12.2 °F 79% 30.42 in 10.0 mi SSW 4.6 mph - N/A   Clear
11:55 PM 17.6 °F 10.7 °F 12.2 °F 79% 30.41 in 10.0 mi SSW 4.6 mph - N/A   Clear